7 * 24
多渠道服务支持
CONNECTA IOT-1 是一颗由西班牙公司 CONNECTA 开发的低轨物联网(IoT)卫星,旨在为全球范围内的远程设备提供低成本、低功耗的双向通信服务。该卫星运行在低地球轨道,专注于支持农业、物流、环境监测等领域的物联网应用。IOT-1 采用创新的通信协议,优化数据传输效率,使小型设备也能实现高效联网。该项目是 CONNECTA 打造全球物联网卫星网络的第一步,未来计划部署更多卫星以增强覆盖和性能。
土耳其
(TR)
| 数据来源 | 国际轨道数据 |
| 星历时间: | 2025-12-12T19:36:07+0800 22小时前 查看轨道信息 |
| 半长轴: | 6876.413km |
| 偏心率: | 0.0001845 |
| 轨道倾角: | 97.397° |
| 近地点辐角 | 178.390° |
| 升交点赤经 | 60.945° |
| 平近点角 | 181.734° |
| 近地点: | 497.009km |
| 远地点: | 499.547km |
| 周期: | 94.581分钟 |
| 每日圈数: | 15.225089 |